Aérodrome :
LOGIN :

S'inscrire | Disclaimer

   EN    FR    IT 

 










Légende :    VFR   VFR Marginal   IFR   IFR Intensif   IFR Très Intensif
Visi : 
Plafond : 
>= 8 km
>= 3000ft
5 à 8 km
1000 à 3000 ft
1500m à 5 km
500 à 1000 ft
800 à 1500m
200 à 500 ft
< 800m
< 200 ft
Symboles :   Orages  Brouillard  Fortes neiges  Fortes précipitations  Vent > 20 kt
SIGMETs :   Divers  Orages  Givrage  Turbulence  Onde Orograph.  Cendres Volcan.







- Altitude de l'aérodrome : 302 ft
- Code IATA : CGN


EDDK - Cologne Bonn

DERNIER METAR :
  • 201550Z 16011KT 9999 FEW080CB 23/09 Q1019 NOSIG

METARs EXPIRÉS :
  • 201520Z 08009KT 9999 FEW070CB 24/06 Q1018 NOSIG
  • 201450Z 07010KT 050V110 9999 FEW070CB 25/07 Q1019 NOSIG
  • 201420Z 09007KT 020V160 9999 FEW060CB 25/08 Q1019 NOSIG
  • 201350Z 09008KT 040V170 9999 VCSH FEW055CB SCT060TCU 24/08 Q1019 NOSIG
  • 201320Z 12007KT 070V190 9999 FEW040 SCT060TCU 24/08 Q1020 NOSIG
  • 201250Z 06005KT 010V130 9999 FEW040 SCT055TCU 22/09 Q1020 NOSIG

TAF TAF EDDK
Valide du 20 à 12h jusqu'au 21 à 18h UTC


201100Z 2012/2118 32005KT CAVOK
BECMG 2012/2014 07007KT
PROB30
TEMPO 2015/2019 04015KT -TSRA SCT025CB
Pas de NOTAMs connus pour ce terrain.



MET'MAP, la Météo Aéronautique d'un coup d'oeil ! - Copyright ORBIFLY Décembre 2007 - Disclaimer

ORBIFLY MET'MAP TEAM :

Programmation & Développement : Alexandra Zaïnal
Conception & Développement : Baudouin d'Aumeries
Co-Programmation & Développement : Marc-Olivier Méhu
Soutien technique & logistique : Manuel Goepfert

Contact : metmap@orbifly.com




SOURCES & CREDITS :

   NOAA